Home   Weather   Minsk   Past weeks
Flag for Belarus

Past Weather in Minsk, Belarus — Yesterday and Last 2 Weeks

Now
45 °F

Sleet. Overcast.


Feels Like: 45 °F
Forecast: 62 / 48 °F
Wind: 1 mph from Southeast

Location: Minsk

Current Time: Oct 21, 2019 at 6:30:54 am

Latest Report: Oct 21, 2019 at 5:58 am


Visibility: 1 mi

Pressure: 30.07 "Hg

Humidity: 100%

Dew Point: 45 °F

Location of MinskLocation

Past Weather in Minsk — Graph

°F

Minsk Temperature Yesterday

Maximum temperature yesterday: 68 °F (at 2:30 pm)
Minimum temperature yesterday: 43 °F (at 6:00 am)
Average temperature yesterday: 55 °F

High & Low Weather Summary for the Past Weeks

 TemperatureHumidityPressure
High72 °F (Oct 14, 2:30 pm)100% (Oct 6, 6:30 am)30.15 "Hg (Oct 6, 6:30 am)
Low32 °F (Oct 6, 6:30 am)40% (Oct 16, 2:30 pm)29.59 "Hg (Oct 10, 10:30 am)
Average50 °F86%29.94 "Hg
* Reported Oct 6 5:00 am — Oct 21 5:25 am, Minsk. Weather by CustomWeather, © 2019

Note: Actual official high and low records may vary slightly from our data, if they occured in-between our weather recording intervals... More about our weather records

Advertising

Minsk Weather History for the Previous 24 Hours

Scroll right to see more
 ConditionsComfort  
Time TempWeatherWind HumidityBarometerVisibility
5:25 am
Mon, Oct 21
45 °FSleet. Overcast.1 mph100%30.07 "Hg1 mi
5:00 am45 °FQuite cool.1 mph100%30.07 "Hg2 mi
4:56 am46 °FCool.1 mph93%30.07 "Hg2 mi
4:36 am48 °FCool.No wind94%30.07 "Hg2 mi
4:00 am50 °FCool.No wind94%30.07 "Hg2 mi
3:50 am50 °FCool.No wind94%30.07 "Hg2 mi
3:00 am50 °FCool.1 mph94%30.07 "Hg3 mi
2:30 am46 °FFog.1 mph93%30.07 "Hg2 mi
2:25 am46 °FFog.1 mph93%30.07 "Hg2 mi
1:57 am45 °FQuite cool.No wind100%30.07 "Hg2 mi
1:30 am46 °FFog.1 mph93%30.07 "Hg2 mi
1:00 am46 °FFog.No wind100%30.09 "Hg3 mi
12:56 am46 °FFog.No wind100%30.09 "Hg3 mi
12:30 am48 °FFog.1 mph100%30.09 "Hg3 mi
12:16 am46 °FFog.1 mph100%30.09 "Hg3 mi
12:00 am46 °FFog.1 mph100%30.09 "Hg3 mi
11:30 pm
Sun, Oct 20
48 °FClear.1 mph100%30.09 "Hg4 mi
11:00 pm52 °FClear.1 mph94%30.09 "Hg5 mi
10:30 pm54 °FClear.3 mph88%30.07 "Hg5 mi
10:00 pm54 °FClear.3 mph88%30.07 "Hg5 mi
9:30 pm57 °FClear.3 mph82%30.07 "Hg5 mi
9:00 pm59 °FClear.3 mph77%30.07 "Hg5 mi
8:30 pm59 °FClear.3 mph77%30.07 "HgN/A
8:00 pm59 °FClear.3 mph77%30.07 "HgN/A
7:30 pm59 °FClear.6 mph77%30.07 "HgN/A
7:00 pm59 °FClear.3 mph77%30.07 "HgN/A
6:30 pm61 °FClear.3 mph72%30.07 "HgN/A
6:00 pm61 °FSunny.1 mph77%30.07 "Hg10 mi
5:30 pm64 °FSunny.3 mph68%30.07 "Hg10 mi
5:00 pm66 °FSunny.10 mph64%30.04 "Hg10 mi
4:30 pm68 °FSunny.6 mph56%30.07 "Hg10 mi
4:00 pm68 °FSunny.6 mph60%30.07 "Hg10 mi
3:30 pm68 °FSunny.8 mph60%30.07 "Hg10 mi
3:00 pm68 °FSunny.6 mph60%30.07 "Hg10 mi
2:30 pm68 °FPassing clouds.6 mph60%30.07 "HgN/A
2:00 pm66 °FSunny.6 mph64%30.07 "Hg10 mi
1:30 pm66 °FSunny.3 mph64%30.07 "Hg10 mi
1:00 pm64 °FPassing clouds.3 mph68%30.07 "HgN/A
12:30 pm63 °FSunny.3 mph73%30.07 "Hg10 mi
12:00 pm63 °FSunny.6 mph73%30.07 "Hg10 mi
11:30 am59 °FClear.1 mph77%30.07 "Hg6 mi
11:00 am55 °FClear.3 mph88%30.07 "Hg5 mi
10:30 am55 °FClear.1 mph88%30.07 "Hg4 mi
10:00 am54 °FFog.3 mph94%30.07 "Hg3 mi
9:30 am52 °FFog.No wind100%30.04 "Hg3 mi
9:00 am50 °FFog.1 mph100%30.07 "Hg2 mi
8:30 am50 °FFog.1 mph100%30.07 "Hg2 mi
8:00 am48 °FFog.No wind100%30.04 "Hg2 mi
7:30 am48 °FFog.1 mph100%30.04 "Hg2 mi
7:00 am48 °FFog.No wind100%30.04 "Hg1 mi
6:30 am45 °FQuite cool.No wind100%30.04 "Hg1 mi
6:00 am43 °FSleet. Overcast.No wind100%30.04 "Hg1 mi
Weather by CustomWeather, © 2019

See weather overview